Reflectivity
-20 -20 -10 -17 -18 -20 -20 -20 -6 -20 -20 -20 -20 -20 -20 -20 -20 -20 -20 -20 -20 -20 -20 -20 -20 -20 -20 -20 -20 -20 -20 -20 -20 -1 9 7 4 -6 1 2 -5 5 -0 20
-20 -20 -20 -20 -20 -20 -4 -20 -20 -20 -20 -20 -20 -20 -20 -20 -20 -20 -20 -20 -20 -20 -20 -20 -20 -20 -20 -20 -20 -20 -20 -20 -20 -20 -20 2 -20 -20 -13 -0 4 3 -16 2
-20 -20 0 7 -20 -20 -20 -20 -20 1 -18 -20 -20 -20 -20 -20 -20 -20 -20 -1 -14 10 -1 -15 -20 -20 -20 -20 -20 -20 -20 -20 -20 -20 3 -20 -20 4 -15 0 -20 -20 -20 -20
-1 -8 2 -20 -20 -20 -20 -20 -20 -20 -20 -20 -20 -20 -20 -20 -20 8 -20 -20 -20 -20 -12 15 -19 -20 -20 -20 -20 -20 -20 -20 -20 -20 -20 -20 -20 -0 9 -4 -17 -20 -20 -20
8 5 -20 -20 -20 -20 -20 -20 -20 -20 -20 -20 -20 -20 -20 -20 -20 -20 -20 -20 8 -20 14 11 -1 -20 -20 -20 -20 -20 -20 -20 -3 -20 -20 -18 -5 5 6 19 8 -10 5 -12
15 8 -11 -19 -20 -20 -20 -20 -20 -20 -20 -20 -20 -20 -20 -20 -20 -20 -20 -18 -20 -20 14 32 3 -20 -20 -20 -20 -20 -20 -20 -20 -20 -20 -20 -20 -20 -20 16 24 24 17 10
12 15 -2 -20 0 -20 -20 -20 -20 -20 -20 -20 -20 -20 -20 -20 -20 -20 -20 -20 -20 -20 -8 34 13 -20 -20 4 -14 -20 -20 -13 -20 -20 -20 -20 -20 -10 0 -10 -0 5 19 22
14 17 14 -20 -20 -20 -20 -20 -20 -20 -20 -20 -20 -20 -20 -20 -20 -20 -20 -20 -20 13 -8 18 27 -20 -20 -11 -12 -20 -20 -20 -20 -20 -19 -16 6 2 1 24 11 24 35 36
-2 -10 -20 -20 -20 -20 -20 -20 -20 -20 -20 -20 -20 -20 -20 -20 -20 -20 -20 -20 -20 30 31 28 12 -20 -20 -18 -20 -20 -6 7 -11 -20 -4 11 -14 -8 -6 -9 -11 -1 26 5
-20 -20 -20 -20 -20 -20 -20 -20 -20 -20 -20 -20 -20 -20 -20 -20 -20 -20 -20 -20 -20 14 5 27 -17 0 -20 -20 -20 -20 -20 -8 0 -7 32 -2 -20 -20 -20 -20 -20 -13 6 -10
-20 -20 -20 -20 -20 -20 -20 -20 -20 -20 -20 -20 -20 -20 -20 -20 -20 -14 -20 -20 -20 29 26 -15 -18 -20 -20 -20 -20 -20 -20 -20 -20 -11 -2 21 -10 -8 -8 -6 -9 -5 -1 -1
-20 -20 -20 -20 -20 -20 -20 -20 -20 -20 -20 -20 -20 -20 -20 -20 -20 -20 8 -4 -20 13 18 27 -20 23 22 -20 -20 -20 -20 -20 -20 -16 15 2 20 -7 5 13 17 12 13 14
-20 -20 -20 -20 -20 -20 -20 -20 -20 -20 -20 -20 -20 -20 -20 -19 -20 -20 -20 20 -20 17 22 23 27 25 25 -20 -20 -20 -20 -20 -20 -20 -19 19 26 5 -13 1 4 9 10 11
-20 -20 -20 -20 -20 -20 -20 -20 -20 -20 -20 -19 3 10 -9 -3 -5 3 24 15 -15 22 7 15 2 -5 -18 -20 -20 3 -4 -15 -20 -16 -20 -18 1 15 5 -14 -19 -19 0 6
-20 -20 -13 -20 -20 -20 -15 2 -20 -13 -8 -20 -20 -5 2 -2 22 18 -3 -20 -20 -20 -20 -20 -20 -20 -20 -20 -20 -20 -20 -20 -20 -5 -8 -10 -1 23 21 25 16 13 13 8
-20 -8 -1 -20 -20 -20 -20 -20 -20 -20 -20 -20 -20 -20 -20 -5 1 -20 -20 -19 -2 -20 -20 -4 -20 -18 -20 -20 -20 -20 -20 -1 -15 -19 -20 -20 -20 -3 18 16 26 24 -2 -3
4 19 -0 -5 -20 -20 -20 -20 -19 -5 -9 -2 -7 -20 -13 -20 -5 -20 -20 -20 -16 8 19 8 3 7 6 16 -20 -20 -18 -18 -7 -19 -20 -20 -15 -11 1 13 12 20 20 25
1 23 5 -10 -7 -3 -6 -20 -16 -20 -2 -16 -13 -20 -13 -16 -12 -8 -4 -15 -15 -12 -6 4 25 5 5 -16 -6 -3 -3 -15 -5 -2 -8 -5 -5 -4 12 13 18 18 19 20
0 25 20 -1 -20 -1 -11 -20 -20 -9 -18 -7 -1 -4 -7 -7 -9 19 2 -9 -4 -4 -7 15 -13 3 -4 -20 -6 1 -3 0 -1 -13 -5 2 3 1 5 10 12 16 16 22
-0 8 -6 -3 -6 -18 -6 -16 -17 2 -2 -1 -20 -7 -13 -20 0 -6 4 -0 -2 2 19 25 26 0 5 -1 9 1 2 6 -10 3 6 -6 -6 -8 3 -13 0 5 6 19
2 -9 6 1 -15 -19 -20 -19 -17 -20 -20 -20 -15 3 -20 -20 -11 -17 4 1 0 0 2 10 12 12 2 3 -19 -8 -10 -7 -5 -7 -3 4 4 6 5 5 7 7 6 1
-14 -16 0 -14 -12 -8 5 -11 -19 -20 -20 -20 -20 -20 -20 -10 -8 -20 -20 -19 -16 -16 9 3 -11 -20 -20 -20 -2 5 -3 -3 1 -1 -1 -0 4 4 1 4 -1 1 2 0
-20 -20 -20 -3 -5 -14 -6 -15 -20 -20 -20 -20 -20 -20 -5 -5 -1 -4 -0 -10 -14 -18 -20 -20 -15 -20 -20 2 2 0 -0 -6 -3 -3 -3 -4 -3 -4 -4 -0 -1 -2 -0 -1
-20 -20 -20 -20 -19 -19 -20 -19 1 -18 -20 -20 -20 0 4 9 -1 -20 -20 -20 -20 -20 -20 -3 -11 -19 -20 -1 0 -1 -0 0 1 2 -3 1 1 0 -1 0 -2 -4 -0 -4
-20 -20 -20 -8 -20 -20 -20 -5 -11 -1 -20 -20 -20 -19 11 12 4 -0 -5 -17 -5 -20 -19 -10 -2 -2 -1 -2 -4 -3 -3 -2 0 -1 -1 -4 -1 -1 -2 -3 -2 1 -3 -2
-7 -20 -20 -20 -20 -19 -8 4 11 12 8 -1 1 6 -3 -4 -15 -6 -4 -4 -14 -10 -3 0 3 2 -1 -5 -1 -1 -1 -1 -2 -2 -1 -1 -2 -1 -1 -1 -2 -2 0 -1
-20 -20 -20 -20 -20 -7 2 -12 3 16 17 11 5 4 2 3 -0 -3 -2 -3 -4 -5 -5 -3 1 5 5 -3 -3 -4 -5 -5 -15 -1 -1 -0 -1 -1 -1 -1 -1 -0 -1 -2
Wind_Speed
27 23 19 22 22 20 21 22 21 18 23 19 21 24 20 20 19 18 18 19 20 17 11 7 6 6 8 7 8 8 10 11 11 11 11 8 10 11 11 13 14 15 14 13
26 22 22 24 23 23 26 25 25 25 31 23 25 21 19 16 16 18 19 21 17 17 8 6 7 7 8 10 9 9 9 10 11 9 10 10 10 12 13 13 13 14 16 15
19 15 18 21 23 28 28 27 26 25 25 22 18 17 15 16 18 20 17 16 18 15 8 7 8 9 10 11 11 11 10 11 10 10 8 11 10 11 11 13 14 13 14 15
7 6 15 13 13 11 17 22 21 20 19 18 17 14 14 14 20 14 16 17 17 15 11 11 7 9 9 11 12 11 11 9 8 7 8 6 8 10 10 11 12 12 15 16
7 13 19 15 10 13 10 15 14 16 15 12 11 15 14 12 9 12 16 17 14 15 15 12 7 7 9 10 12 12 10 7 6 6 8 6 5 5 4 8 10 10 10 12
7 8 11 6 10 4 3 13 14 10 9 10 11 13 12 10 12 15 15 14 17 17 17 17 8 5 8 9 10 10 8 6 7 5 5 4 2 4 4 6 6 6 8 10
15 9 9 12 14 5 6 4 5 2 7 10 12 13 16 10 15 12 13 15 14 17 18 19 6 3 3 2 5 6 8 5 4 3 3 4 5 5 7 7 8 9 9 8
12 10 15 8 8 9 2 1 5 10 12 15 14 16 16 17 17 16 12 13 13 14 18 19 7 2 2 4 4 4 3 5 2 3 4 5 7 6 7 7 8 8 8 7
8 6 5 1 5 0 5 12 15 19 19 17 18 19 18 18 17 18 11 11 10 13 20 13 5 3 4 4 2 1 3 4 4 5 3 6 6 7 6 6 6 7 6 7
5 12 12 11 11 12 13 16 17 16 17 17 17 18 20 17 16 15 11 7 8 16 20 16 5 5 2 5 5 5 4 5 4 5 4 4 4 4 5 6 6 6 6 7
14 16 15 16 16 15 13 12 14 16 17 17 18 18 18 16 17 16 15 10 9 14 18 12 5 7 7 7 6 4 4 5 5 4 4 3 2 2 3 2 5 7 6 6
9 10 12 14 12 12 14 15 17 17 18 18 18 18 17 16 16 14 16 11 11 11 16 15 8 8 7 6 6 5 4 4 4 4 4 4 3 2 2 3 6 7 8 5
13 11 12 13 14 16 18 18 18 18 16 16 16 16 13 14 15 17 17 17 11 7 18 7 6 7 4 5 6 5 3 4 4 5 4 4 4 4 4 2 6 8 10 12
9 11 14 16 12 15 19 20 19 17 15 14 13 12 10 10 13 16 15 12 9 9 4 5 5 1 4 3 3 3 3 2 3 4 4 4 4 4 4 5 6 5 7 7
9 10 10 7 7 8 11 11 10 11 11 12 10 7 6 8 10 14 11 9 8 8 5 7 3 4 4 5 6 6 4 3 3 3 3 3 3 3 3 4 4 5 5 5
10 8 7 5 6 9 9 9 9 9 9 10 10 10 9 11 12 12 9 6 7 5 4 4 3 4 4 4 3 3 3 4 2 2 2 3 3 3 3 4 4 5 6 7
6 1 3 4 5 7 8 8 9 9 10 10 10 10 11 11 12 11 7 3 3 2 2 2 2 3 2 2 2 2 2 3 3 2 2 2 2 3 3 3 4 4 4 6
2 6 9 5 7 8 8 8 8 10 9 10 10 10 9 8 9 8 4 1 1 1 1 2 2 1 3 2 1 2 2 3 2 2 2 2 2 2 2 3 3 3 3 4
4 7 9 7 7 8 9 9 9 9 8 8 8 9 9 7 6 2 3 3 4 4 1 1 1 1 2 2 2 3 3 3 3 3 3 3 3 3 3 3 3 3 3 3
2 4 7 8 9 10 11 9 9 8 7 5 7 8 6 3 2 1 1 3 4 3 2 1 2 3 3 3 2 4 4 3 4 4 3 4 4 5 6 6 5 4 4 4
4 5 6 7 7 8 6 7 6 9 9 8 7 6 5 1 1 2 4 3 3 3 3 1 1 2 4 4 5 5 6 5 6 5 5 5 5 6 6 7 7 6 6 6
5 5 6 7 8 8 6 6 8 6 9 8 7 5 4 3 3 3 5 3 3 1 3 4 4 6 5 6 6 6 7 7 6 6 6 6 6 7 7 7 8 7 7 8
6 7 8 5 7 10 9 7 7 7 9 8 7 6 6 3 2 4 5 3 4 4 5 5 6 8 8 6 7 8 8 8 7 7 7 8 8 8 8 8 7 7 7 7
7 7 9 10 11 11 11 9 6 6 4 7 7 4 4 4 3 4 7 8 8 8 7 5 7 10 10 7 7 7 8 8 7 7 8 9 7 7 7 7 7 7 7 8
7 9 10 9 11 10 11 9 9 7 5 6 3 3 0 1 2 6 6 7 8 8 8 9 11 11 8 8 8 8 8 7 7 7 8 7 8 8 8 8 8 7 7 7
10 8 9 10 10 10 9 8 8 7 6 6 4 3 4 4 6 6 6 8 7 8 7 6 7 8 8 8 8 9 8 8 8 8 8 8 8 8 8 8 7 7 7 7
9 8 9 9 9 9 7 9 10 9 7 7 7 6 6 6 7 7 8 7 7 7 7 7 7 8 8 8 9 9 8 8 9 8 8 8 7 7 7 7 7 7 7 7
Wind_Direction
257 264 260 263 252 252 256 252 245 267 270 282 291 285 297 304 299 295 302 307 306 301 297 294 264 277 273 266 274 264 276 273 262 239 244 219 201 192 189 185 175 178 179 173
261 257 257 264 255 252 244 247 256 262 266 263 267 280 288 294 306 302 313 300 304 293 287 282 274 281 295 281 279 276 270 272 267 244 225 218 203 192 191 186 182 184 186 185
261 257 252 255 249 248 251 246 245 248 257 266 281 285 299 307 304 303 307 328 339 325 294 287 293 310 296 304 294 276 264 267 269 271 239 199 198 198 198 192 179 174 184 182
268 252 245 258 241 263 245 246 249 258 262 271 279 306 296 309 300 334 330 323 312 302 291 283 292 297 313 312 305 290 275 274 280 277 266 227 197 198 197 177 182 174 189 188
227 224 258 258 210 220 222 248 251 260 269 279 289 286 283 279 357 331 316 294 295 301 298 277 280 311 310 307 323 313 307 295 315 284 260 237 214 182 188 161 170 183 174 171
199 238 248 101 63 73 42 261 260 222 249 268 278 273 283 355 332 315 317 304 303 300 299 270 270 307 305 343 316 306 340 329 286 258 240 206 165 147 125 135 140 149 162 163
226 244 256 268 143 133 222 330 78 229 249 265 272 284 306 299 278 293 300 308 304 298 290 255 265 287 5 324 298 304 298 291 256 243 174 161 115 121 133 131 132 142 146 153
223 240 249 152 144 216 354 44 256 263 268 271 285 289 290 288 291 290 286 305 295 303 296 288 261 275 133 286 297 302 333 335 306 146 132 136 136 143 140 144 145 148 148 155
207 227 113 194 258 102 270 271 279 283 285 299 292 282 287 283 285 289 292 303 288 293 283 265 230 246 203 211 170 156 105 56 40 69 61 148 158 149 142 152 156 156 161 159
239 243 245 236 248 284 301 284 286 289 293 290 289 284 282 288 290 292 288 273 306 300 289 262 190 197 177 147 172 162 139 135 121 96 67 57 105 139 153 166 162 164 167 167
250 263 280 279 281 285 292 293 288 287 286 284 287 286 289 287 288 289 284 255 254 275 283 266 213 205 185 187 187 176 151 153 147 133 142 116 76 145 169 165 174 174 177 170
246 268 278 282 289 303 299 290 288 289 289 286 282 283 289 290 292 303 301 295 254 269 281 262 222 219 203 198 211 212 182 169 167 150 154 163 163 150 126 160 171 164 159 165
267 273 284 295 297 289 281 280 281 277 282 291 290 284 325 321 317 312 294 286 270 247 259 273 4 359 228 187 218 224 190 164 166 171 156 166 172 180 165 122 178 182 175 163
278 275 273 272 297 331 319 305 301 288 287 292 316 325 335 319 310 297 300 343 330 277 187 223 213 41 43 82 86 92 69 50 173 176 174 157 178 183 167 170 173 170 190 177
295 294 308 357 336 334 323 312 304 288 305 322 322 317 312 315 313 306 318 317 310 292 302 281 200 106 174 186 178 181 188 169 173 136 164 158 167 171 174 177 178 164 145 169
307 310 296 315 312 321 323 316 309 301 300 303 304 307 314 303 295 297 302 313 297 289 14 9 42 6 342 305 203 149 131 105 107 113 132 159 177 180 178 189 181 177 178 181
311 297 312 305 327 323 321 305 298 304 307 309 318 320 319 309 298 286 282 338 344 10 7 32 21 343 11 37 103 123 123 125 114 123 138 157 187 198 192 192 193 185 182 175
350 309 303 305 315 313 312 312 313 310 311 319 321 316 296 286 281 282 251 187 212 253 359 29 354 10 33 20 126 136 151 139 147 141 136 150 164 160 161 178 184 184 151 159
336 312 315 315 311 309 310 310 320 321 315 312 308 296 294 293 288 266 143 198 221 222 160 315 155 198 100 28 275 138 131 141 135 122 117 141 135 113 109 111 114 115 128 141
329 318 325 331 330 320 316 311 306 301 299 292 297 289 293 317 321 125 161 89 36 50 111 130 276 98 101 86 295 111 125 119 102 84 77 89 93 90 91 81 88 90 92 102
280 302 317 308 298 296 279 275 278 285 294 293 288 298 299 290 108 163 200 180 90 55 80 49 44 75 73 69 74 72 72 72 68 73 78 74 74 77 78 76 73 72 77 79
272 254 242 265 282 284 269 276 280 277 283 282 281 268 235 208 163 93 32 65 123 46 83 65 57 48 77 72 72 72 80 75 74 73 71 67 72 73 67 66 67 63 61 59
289 301 298 308 284 296 307 285 263 269 276 276 271 253 235 216 218 203 157 103 110 70 81 70 67 74 75 76 78 77 76 74 70 70 67 63 64 65 64 63 61 59 59 61
300 309 305 300 295 288 292 304 297 257 241 270 263 266 235 178 129 92 84 83 85 81 72 73 80 81 82 80 78 80 80 78 79 80 78 75 72 68 64 65 68 65 62 59
307 291 284 277 294 294 302 302 287 249 247 253 234 207 119 24 157 118 110 110 115 102 91 72 76 79 80 81 81 77 69 64 71 77 75 75 74 75 74 67 58 61 65 64
291 294 297 294 285 293 295 284 273 267 210 201 186 157 111 99 107 118 110 108 100 94 84 75 75 81 81 79 78 78 81 79 72 72 77 76 74 75 71 69 66 60 61 62
290 292 288 296 296 296 304 305 300 277 235 197 177 150 141 132 118 118 120 111 100 95 87 77 70 71 83 88 89 88 81 66 61 74 73 73 71 69 67 64 65 67 65 60